Change the Weather History Date:

Thursday, November 29, 2012

  Actual Average (KATT) Record (KATT)
Temperature  
Mean Temperature 57 °F 56 °F  
Max Temperature 68 °F 67 °F 84 °F (1991)
Min Temperature 46 °F 46 °F 20 °F (1976)
Degree Days  
Heating Degree Days 8 10  
Month to date heating degree days 172  
Since 1 July heating degree days 203  
Cooling Degree Days 0 1  
Month to date cooling degree days 60  
Year to date cooling degree days 3125  
Growing Degree Days 7 (Base 50)    
Moisture  
Dew Point 48 °F    
Average Humidity 69    
Maximum Humidity 93    
Minimum Humidity 52    
Precipitation  
Precipitation 0.00 in 0.10 in 0.90 in (1900)
Month to date precipitation 2.88  
Year to date precipitation 31.84  
Snow  
Snow 0.00 in - - ()
Month to date snowfall  
Since 1 July snowfall  
Since 1 September snowfall  
Snow Depth -    
Sea Level Pressure  
Sea Level Pressure 30.20 in    
Wind  
Wind Speed 7 mph (South)    
Max Wind Speed 10 mph    
Max Gust Speed 16 mph    
Visibility 10 miles    
Events      
T = Trace of Precipitation, MM = Missing Value Source: NWS Daily Summary

Daily Weather History Graph

Daily Weather History Graph

Search for Another Location

Airport or City:

Trip Planner

Search our weather history database for the weather conditions in past years. The results will help you decide how hot, cold, wet, or windy it might be!

Date:

Astronomy

Nov. 29, 2012 Rise Set
Actual Time 7:10 AM CST 5:30 PM CST
Civil Twilight 6:43 AM CST 5:56 PM CST
Nautical Twilight 6:14 AM CST 6:26 PM CST
Astronomical Twilight 5:45 AM CST 6:55 PM CST
Moon 6:35 PM CST (11/29) 7:57 AM CST (11/29)
Length of Visible Light 11h 12m
Length of Day
10h 20m
Full, 99% of the Moon is Illuminated
Nov 29
Full
Dec 6
Last Quarter
Dec 13
New
Dec 19
First Quarter
Dec 28
Full

Hourly Weather History & Observations

Time (CST) Temp. Windchill Dew Point Humidity Pressure Visibility Wind Dir Wind Speed Gust Speed Precip Events Conditions
12:35 AM 51.8 °F - 41.0 °F 67% 30.28 in 10.0 mi South 6.9 mph - N/A   Clear
1:15 AM 50.0 °F - 41.0 °F 71% 30.27 in 10.0 mi South 6.9 mph - N/A   Clear
1:35 AM 50.0 °F - 41.0 °F 71% 30.27 in 10.0 mi South 8.1 mph - N/A   Clear
1:55 AM 50.0 °F - 42.8 °F 76% 30.28 in 10.0 mi South 9.2 mph - N/A   Clear
2:15 AM 50.0 °F - 42.8 °F 76% 30.27 in 10.0 mi South 10.4 mph - N/A   Clear
2:35 AM 50.0 °F - 42.8 °F 76% 30.27 in 10.0 mi South 9.2 mph - N/A   Clear
2:55 AM 50.0 °F - 42.8 °F 76% 30.25 in 10.0 mi South 8.1 mph - N/A   Clear
3:15 AM 50.0 °F - 42.8 °F 76% 30.25 in 10.0 mi South 5.8 mph - N/A   Clear
3:35 AM 50.0 °F - 42.8 °F 76% 30.25 in 10.0 mi South 8.1 mph - N/A   Clear
3:55 AM 50.0 °F - 44.6 °F 82% 30.25 in 10.0 mi South 8.1 mph - N/A   Clear
4:15 AM 50.0 °F - 44.6 °F 82% 30.24 in 10.0 mi South 8.1 mph - N/A   Clear
4:35 AM 48.2 °F - 44.6 °F 87% 30.24 in 10.0 mi South 5.8 mph - N/A   Clear
4:55 AM 48.2 °F - 44.6 °F 87% 30.23 in 10.0 mi South 5.8 mph - N/A   Clear
5:15 AM 48.2 °F - 44.6 °F 87% 30.23 in 10.0 mi South 3.5 mph - N/A   Clear
5:55 AM 46.4 °F 44.3 °F 44.6 °F 93% 30.23 in 7.0 mi SE 4.6 mph - N/A   Clear
6:15 AM 46.4 °F 43.5 °F 44.6 °F 93% 30.23 in 7.0 mi South 5.8 mph - N/A   Clear
6:35 AM 48.2 °F - 44.6 °F 87% 30.24 in 10.0 mi South 5.8 mph - N/A   Clear
6:55 AM 48.2 °F - 44.6 °F 87% 30.25 in 10.0 mi SW 3.5 mph - N/A   Clear
7:15 AM 48.2 °F - 44.6 °F 87% 30.25 in 10.0 mi SW 4.6 mph - N/A   Clear
7:35 AM 48.2 °F - 44.6 °F 87% 30.26 in 10.0 mi SW 3.5 mph - N/A   Clear
8:15 AM 50.0 °F - 44.6 °F 82% 30.25 in 10.0 mi SSW 4.6 mph - N/A   Clear
8:35 AM 50.0 °F - 44.6 °F 82% 30.26 in 10.0 mi SW 3.5 mph - N/A   Clear
8:55 AM 51.8 °F - 44.6 °F 76% 30.26 in 10.0 mi SSW 5.8 mph - N/A   Clear
9:15 AM 53.6 °F - 44.6 °F 72% 30.26 in 10.0 mi South 4.6 mph - N/A   Clear
9:35 AM 55.4 °F - 44.6 °F 67% 30.26 in 10.0 mi SSE 4.6 mph - N/A   Clear
9:55 AM 55.4 °F - 44.6 °F 67% 30.27 in 10.0 mi South 5.8 mph - N/A   Clear
10:15 AM 57.2 °F - 44.6 °F 63% 30.26 in 10.0 mi SSE 5.8 mph - N/A   Clear
10:35 AM 57.2 °F - 44.6 °F 63% 30.26 in 10.0 mi SSE 5.8 mph - N/A   Clear
10:55 AM 59.0 °F - 46.4 °F 63% 30.26 in 10.0 mi SSE 5.8 mph - N/A   Clear
11:15 AM 60.8 °F - 48.2 °F 63% 30.25 in 10.0 mi SSE 6.9 mph - N/A   Clear
11:35 AM 60.8 °F - 48.2 °F 63% 30.24 in 10.0 mi South 5.8 mph - N/A   Clear
11:55 AM 62.6 °F - 48.2 °F 59% 30.23 in 10.0 mi South 8.1 mph - N/A   Clear
12:15 PM 64.4 °F - 50.0 °F 59% 30.21 in 10.0 mi SSE 6.9 mph - N/A   Clear
12:35 PM 64.4 °F - 50.0 °F 59% 30.21 in 10.0 mi South 9.2 mph 16.1 mph N/A   Scattered Clouds
12:55 PM 64.4 °F - 50.0 °F 59% 30.19 in 10.0 mi South 8.1 mph 16.1 mph N/A   Mostly Cloudy
1:15 PM 66.2 °F - 50.0 °F 56% 30.18 in 10.0 mi SSW 8.1 mph - N/A   Mostly Cloudy
1:35 PM 68.0 °F - 50.0 °F 52% 30.17 in 10.0 mi South 8.1 mph - N/A   Mostly Cloudy
1:55 PM 66.2 °F - 51.8 °F 60% 30.16 in 10.0 mi SSE 8.1 mph - N/A   Mostly Cloudy
2:15 PM 68.0 °F - 51.8 °F 56% 30.16 in 10.0 mi South 8.1 mph - N/A   Overcast
2:35 PM 68.0 °F - 51.8 °F 56% 30.15 in 10.0 mi South 8.1 mph 16.1 mph N/A   Overcast
2:55 PM 68.0 °F - 51.8 °F 56% 30.15 in 10.0 mi South 6.9 mph - N/A   Overcast
3:15 PM 68.0 °F - 51.8 °F 56% 30.13 in 10.0 mi South 10.4 mph - N/A   Overcast
3:35 PM 68.0 °F - 51.8 °F 56% 30.14 in 10.0 mi South 6.9 mph - N/A   Overcast
3:55 PM 68.0 °F - 51.8 °F 56% 30.14 in 10.0 mi South 8.1 mph - N/A   Overcast
4:15 PM 66.2 °F - 51.8 °F 60% 30.15 in 10.0 mi South 5.8 mph - N/A   Overcast
4:35 PM 66.2 °F - 51.8 °F 60% 30.14 in 10.0 mi SSW 5.8 mph - N/A   Overcast
4:55 PM 66.2 °F - 51.8 °F 60% 30.14 in 10.0 mi South 6.9 mph - N/A   Overcast
5:15 PM 66.2 °F - 51.8 °F 60% 30.14 in 10.0 mi South 6.9 mph - N/A   Overcast
5:35 PM 66.2 °F - 51.8 °F 60% 30.15 in 10.0 mi South 3.5 mph - N/A   Overcast
5:55 PM 64.4 °F - 51.8 °F 64% 30.15 in 10.0 mi South 4.6 mph - N/A   Overcast
6:15 PM 64.4 °F - 51.8 °F 64% 30.15 in 10.0 mi SSW 4.6 mph - N/A   Overcast
6:35 PM 66.2 °F - 51.8 °F 60% 30.16 in 10.0 mi SSW 4.6 mph - N/A   Overcast
6:55 PM 66.2 °F - 51.8 °F 60% 30.16 in 10.0 mi South 3.5 mph - N/A   Overcast
7:15 PM 64.4 °F - 51.8 °F 64% 30.16 in 10.0 mi South 4.6 mph - N/A   Overcast
7:35 PM 64.4 °F - 51.8 °F 64% 30.16 in 10.0 mi South 5.8 mph - N/A   Overcast
7:55 PM 66.2 °F - 51.8 °F 60% 30.17 in 10.0 mi South 5.8 mph - N/A   Overcast
8:15 PM 64.4 °F - 51.8 °F 64% 30.17 in 10.0 mi South 5.8 mph - N/A   Overcast
8:35 PM 64.4 °F - 51.8 °F 64% 30.17 in 10.0 mi South 4.6 mph - N/A   Overcast
8:55 PM 64.4 °F - 51.8 °F 64% 30.17 in 10.0 mi South 4.6 mph - N/A   Overcast
9:15 PM 64.4 °F - 51.8 °F 64% 30.17 in 10.0 mi South 6.9 mph - N/A   Overcast
9:35 PM 64.4 °F - 51.8 °F 64% 30.16 in 10.0 mi South 8.1 mph - N/A   Overcast
9:55 PM 64.4 °F - 51.8 °F 64% 30.16 in 10.0 mi South 5.8 mph - N/A   Mostly Cloudy
10:15 PM 62.6 °F - 51.8 °F 68% 30.16 in 10.0 mi South 4.6 mph - N/A   Mostly Cloudy
10:35 PM 62.6 °F - 51.8 °F 68% 30.16 in 10.0 mi SSE 5.8 mph - N/A   Mostly Cloudy
10:55 PM 62.6 °F - 53.6 °F 72% 30.16 in 10.0 mi SSE 6.9 mph - N/A   Scattered Clouds
11:15 PM 62.6 °F - 53.6 °F 72% 30.16 in 10.0 mi SSE 9.2 mph - N/A   Clear
11:35 PM 60.8 °F - 53.6 °F 77% 30.16 in 10.0 mi SSE 5.8 mph - N/A   Clear
11:55 PM 60.8 °F - 53.6 °F 77% 30.16 in 10.0 mi SSE 6.9 mph - N/A   Clear